Temp
21 21 21 21 21 22 22 22 22 22 21 21 22 22 22 22 22 22 22 22 22 22 22 22 22 22 22 22 22 22 22 22 22 22 22 22 22 22 22 22 22 22 22 22 22 22 22 22 22 22 22 22 22 22 22 22 22 22 22 22 22 22 22 22 22 22 22 22 22 22 21 22 22 22 21 21 22 21 21 21 21 21 21 21 21
21 21 21 21 21 22 22 22 22 22 22 22 22 22 22 22 22 22 22 22 22 22 22 22 22 22 22 22 22 22 22 22 22 22 23 22 22 22 22 22 22 22 22 22 22 22 22 22 22 22 22 22 22 22 22 22 22 22 22 22 22 22 22 22 22 22 22 22 22 21 22 22 22 22 22 22 21 21 21 21 21 21 21 21 21
21 21 21 21 21 22 22 22 22 22 22 22 22 22 22 22 22 22 22 22 22 22 23 22 22 22 22 22 22 22 22 22 22 22 22 22 22 22 22 22 22 21 22 22 22 22 22 22 22 22 22 22 22 22 22 22 22 22 22 22 22 22 22 22 22 22 21 21 21 21 21 22 22 22 21 22 22 21 21 21 21 21 21 21 21
21 21 21 21 21 22 22 22 22 22 22 22 22 22 22 22 22 22 22 22 22 22 23 23 23 22 22 22 22 22 22 22 22 22 22 22 22 22 22 22 21 21 22 22 22 22 22 22 22 22 22 22 22 22 22 22 22 22 22 22 22 22 22 22 21 21 21 21 21 21 21 21 21 21 22 22 22 21 21 21 21 21 21 21 21
21 21 21 21 21 22 22 22 22 22 22 22 22 22 22 22 22 22 22 22 22 22 22 22 22 22 22 22 22 22 22 22 22 22 22 22 22 22 22 22 21 21 22 21 22 22 22 22 22 22 22 22 22 22 22 22 22 22 22 22 22 22 22 21 21 22 22 22 21 21 21 21 21 21 21 21 21 21 21 21 21 21 21 21 21
21 21 21 21 21 21 22 22 22 22 22 22 22 22 22 22 22 22 22 22 22 22 22 22 22 22 22 22 22 22 22 22 22 22 22 22 22 22 22 22 21 22 22 21 22 22 22 22 22 22 22 22 22 22 22 22 22 22 22 22 22 21 21 21 21 22 22 22 21 21 21 21 21 21 21 21 21 21 21 21 21 21 21 21 21
21 21 21 21 21 21 22 22 22 22 22 22 22 22 22 22 22 22 22 22 22 22 22 22 22 22 22 22 22 22 22 22 22 22 22 22 22 22 22 22 21 22 22 21 22 22 22 22 22 22 22 22 22 22 22 22 22 22 22 22 22 21 21 21 22 22 22 22 21 21 21 21 21 21 21 21 21 21 21 21 21 21 21 21 21
21 21 21 21 22 22 22 22 22 22 22 22 22 22 22 22 22 22 22 22 22 22 22 22 22 22 22 22 22 22 22 22 22 22 22 22 22 22 22 22 21 22 22 22 22 22 22 22 22 22 22 22 21 22 22 22 22 22 22 22 21 21 22 22 22 22 22 22 21 21 21 21 21 21 21 21 21 21 21 21 21 21 21 21 21
21 21 21 22 22 22 22 22 22 22 22 22 22 22 22 22 22 22 22 22 22 22 22 22 22 22 22 22 22 22 22 22 22 22 22 22 21 22 22 22 22 22 22 22 22 22 22 22 22 22 22 21 21 21 22 22 22 22 22 21 22 21 21 22 22 22 22 21 21 21 21 21 21 21 21 21 21 21 21 21 21 21 21 21 21
21 21 21 22 22 22 22 22 22 22 22 22 22 22 22 22 22 22 22 22 22 22 22 22 22 22 22 22 22 22 22 22 21 21 21 21 21 21 22 22 22 22 22 22 22 22 22 22 22 22 22 22 21 21 21 22 22 22 22 22 21 21 21 21 21 21 21 21 21 21 21 21 21 21 21 21 21 21 21 21 21 21 21 21 21
21 21 21 22 22 22 22 22 22 22 22 22 22 22 22 22 22 22 21 21 22 21 22 22 22 22 22 22 21 22 21 21 21 21 21 21 21 21 22 22 22 22 22 22 22 22 22 22 22 22 22 22 21 21 22 22 22 22 22 21 21 21 22 21 22 22 21 21 21 21 21 21 21 21 21 21 21 21 21 21 21 21 21 21 21
21 21 22 22 22 22 22 22 22 22 22 22 22 22 22 22 22 22 21 21 21 21 21 21 21 22 22 22 21 21 21 21 21 21 21 22 22 21 22 22 22 22 22 22 22 22 22 22 22 22 22 22 22 22 22 22 22 22 22 21 21 22 22 22 22 22 21 21 21 21 21 20 20 21 21 21 21 21 21 21 21 21 21 21 21
21 21 21 21 22 22 22 22 22 22 22 22 22 22 22 22 22 22 21 21 21 21 21 21 21 22 22 21 21 21 21 21 21 22 22 22 22 22 22 22 21 22 21 21 21 22 22 22 22 22 22 22 22 22 22 22 22 21 22 21 21 22 21 22 22 21 21 21 21 21 21 20 20 21 21 21 21 21 21 21 21 21 21 21 21
21 21 21 21 22 22 22 22 22 22 22 22 22 22 22 22 22 21 21 21 21 21 21 21 21 21 21 21 21 21 21 21 21 22 22 22 22 22 22 22 21 21 21 21 21 21 22 22 22 22 22 22 22 21 21 22 22 22 22 22 21 22 22 22 22 21 22 21 21 21 21 20 20 21 21 21 21 21 21 20 20 21 21 20 20
22 21 21 21 22 22 22 22 22 22 22 22 22 22 22 22 21 21 21 21 21 21 21 21 21 21 21 21 21 21 21 21 22 22 22 22 22 22 22 22 21 21 21 21 21 21 21 22 22 22 22 22 21 21 22 21 22 22 22 22 22 22 22 22 22 22 22 21 21 21 21 20 20 21 21 20 20 20 20 20 20 20 20 20 20
22 21 21 21 21 21 22 22 22 22 22 22 22 21 21 21 22 21 21 21 20 21 21 21 21 21 21 21 21 22 21 21 22 22 22 22 21 21 22 22 21 21 21 21 21 21 22 22 22 22 22 22 22 22 22 21 21 22 22 22 22 22 22 22 22 22 22 22 21 21 21 20 20 20 20 20 20 20 20 20 20 20 20 20 20
22 21 21 21 21 21 21 21 22 22 22 22 22 21 21 21 21 21 21 21 20 20 21 20 21 21 21 21 21 21 22 21 22 22 21 21 21 21 21 21 21 21 21 21 22 22 22 22 22 22 22 22 22 22 22 22 22 22 22 22 22 22 22 22 22 22 22 22 21 21 21 20 20 20 20 20 20 20 20 20 20 20 20 20 20
21 21 21 21 21 21 21 21 21 21 21 21 21 21 21 21 21 21 21 21 20 20 21 20 20 21 21 21 21 21 21 22 22 22 21 21 22 21 21 21 21 21 21 22 22 22 22 23 23 22 22 22 22 22 22 22 22 22 22 22 22 22 22 22 22 22 22 22 22 21 21 20 20 20 20 20 20 20 20 20 20 20 20 20 20
21 21 21 21 21 21 21 21 21 21 21 21 21 21 21 21 21 21 21 20 20 20 21 21 20 21 21 21 21 21 21 21 22 22 21 21 22 21 21 21 21 21 22 22 22 22 23 23 23 23 23 22 22 22 22 22 22 22 22 22 22 22 22 22 22 22 22 22 22 21 21 20 20 20 20 20 20 20 20 20 20 20 20 20 20
21 21 21 21 21 21 21 21 21 21 21 21 21 21 21 21 21 21 21 20 20 20 21 21 20 21 21 21 21 21 21 21 21 21 21 22 21 21 21 21 21 21 22 22 22 23 23 23 23 23 23 22 22 22 22 22 22 22 22 22 22 22 22 22 22 22 22 22 22 21 21 21 20 20 20 20 20 20 21 20 20 20 20 20 20
21 21 21 21 21 21 21 21 21 21 21 21 21 21 21 21 21 21 21 20 20 20 20 21 21 21 20 20 21 21 21 21 21 21 21 21 21 21 21 21 21 21 21 22 23 23 23 23 23 23 23 23 23 22 22 22 22 22 22 22 22 22 22 22 22 22 22 22 22 22 22 21 20 20 20 20 20 20 20 20 20 20 20 20 20
21 21 21 21 21 21 21 21 21 21 21 21 21 21 21 21 21 21 21 20 20 20 20 21 21 21 21 21 21 21 21 21 21 21 21 21 21 21 21 22 21 21 21 22 23 23 23 23 23 23 23 23 23 23 23 23 22 22 22 22 22 23 23 23 22 22 22 22 22 22 22 21 21 20 20 20 20 20 20 20 20 20 20 20 20
21 21 21 21 21 21 21 21 21 21 21 21 21 21 21 21 21 21 21 20 20 20 20 20 21 21 21 21 21 21 21 21 21 21 21 21 21 22 22 21 21 21 21 22 23 23 23 23 23 23 23 23 23 23 23 23 23 22 22 22 23 23 23 23 22 22 22 23 22 22 22 22 22 21 20 20 20 20 20 20 20 20 20 20 20
21 21 21 21 21 21 21 21 20 21 21 21 21 21 21 21 21 21 21 20 20 20 20 20 20 21 21 21 21 21 21 21 21 21 21 21 21 21 21 21 21 21 22 23 23 23 23 23 23 23 23 23 23 23 23 23 23 23 22 23 23 23 23 23 22 22 23 23 23 22 22 22 22 21 21 21 20 20 20 20 20 20 20 20 20
21 21 21 21 21 21 21 20 20 20 20 20 21 21 21 21 21 21 21 21 20 20 20 20 20 20 20 20 21 21 21 21 21 21 21 21 21 21 21 22 22 22 22 23 23 23 23 24 24 23 23 23 23 23 24 24 24 23 23 23 23 23 23 23 23 23 23 23 23 23 22 22 22 22 21 21 20 20 20 20 20 20 20 20 20
21 21 21 21 21 21 20 20 20 20 20 20 21 21 21 21 21 21 21 20 20 20 20 20 20 20 20 20 20 20 21 21 21 21 21 21 21 21 21 22 23 23 23 23 23 24 24 24 24 24 23 23 24 24 24 24 24 24 24 24 23 23 23 23 23 23 23 23 23 23 23 22 22 22 21 21 20 20 20 20 21 20 20 20 20
21 21 21 21 21 21 20 20 20 20 20 20 21 21 21 21 21 21 21 20 20 21 20 20 20 20 20 20 20 20 21 21 21 21 21 21 22 22 22 23 23 23 23 23 23 23 23 23 23 23 23 24 24 24 24 24 24 24 24 24 24 23 24 24 23 23 23 24 23 23 23 23 22 22 22 21 21 21 20 21 21 21 21 21 21
21 21 21 21 21 21 20 20 21 21 21 20 21 21 21 21 21 21 21 21 21 21 21 20 20 20 20 20 21 21 21 21 21 21 22 22 22 22 23 23 23 23 23 23 23 23 23 23 23 23 23 24 24 24 24 24 24 24 24 24 24 24 24 24 24 24 24 24 24 24 23 23 23 23 22 22 21 21 21 22 22 21 22 22 22
21 21 21 21 21 21 21 20 21 21 21 20 20 21 21 21 21 21 21 21 21 21 21 21 21 21 21 21 21 21 21 22 22 22 22 22 23 23 23 23 23 23 23 24 23 23 23 23 23 23 24 24 24 24 25 25 25 25 25 25 25 24 24 24 24 24 24 24 24 24 24 24 24 23 23 23 22 22 22 23 23 23 23 23 23
21 22 21 21 21 21 21 21 21 21 21 20 20 20 20 21 21 21 21 21 21 21 21 21 21 21 21 21 21 22 22 22 22 22 23 23 23 23 23 23 24 24 24 24 23 23 23 23 23 23 24 24 24 24 25 25 26 26 26 25 25 25 25 25 25 24 24 24 25 25 24 24 24 24 24 23 23 23 23 23 23 24 24 23 23
21 22 22 22 21 21 21 21 21 21 21 20 20 20 20 21 21 21 21 21 21 21 21 21 21 21 21 21 21 22 22 22 22 23 23 23 23 23 23 24 24 24 24 24 23 23 23 23 24 24 24 24 25 25 25 25 26 26 26 26 26 26 26 26 25 25 25 25 25 25 25 25 25 25 25 24 24 24 24 24 24 24 24 24 24
22 22 22 22 22 21 21 21 22 21 21 21 20 20 21 21 21 21 21 21 21 21 21 21 21 21 21 22 22 22 22 22 23 23 23 23 23 23 23 24 24 24 24 24 24 24 24 24 24 24 24 25 25 25 26 26 26 26 26 26 26 26 26 26 26 25 25 25 25 26 26 26 26 25 25 25 25 25 25 25 25 24 24 24 24
22 23 23 22 22 22 21 21 22 21 21 21 21 21 21 21 21 22 22 22 22 22 22 22 22 22 22 22 22 22 22 23 23 23 23 23 23 23 24 24 24 24 24 24 24 24 24 24 24 24 25 25 25 25 26 26 26 26 27 26 26 26 26 26 26 26 25 25 25 26 26 26 26 26 26 26 26 26 26 25 25 25 25 24 24
22 23 23 22 22 22 22 22 22 22 21 21 21 21 21 21 22 22 22 22 22 22 22 22 22 22 22 22 22 22 22 22 23 23 23 23 23 23 24 24 24 24 24 24 24 24 24 24 24 25 25 25 25 26 26 27 27 27 27 27 27 27 27 26 26 26 26 25 26 26 26 26 26 26 26 26 26 26 26 25 25 25 25 25 25
23 23 23 23 23 22 22 22 22 22 22 22 22 22 22 22 22 22 22 22 22 22 22 22 22 22 22 22 22 22 22 23 23 23 23 23 23 23 24 24 24 24 24 23 24 24 24 24 25 25 25 25 26 26 26 27 27 27 28 27 27 27 27 27 27 27 26 26 26 26 26 26 26 26 26 26 26 26 26 26 25 25 25 25 25
23 24 23 23 23 23 23 22 22 22 22 22 22 22 22 22 22 22 22 22 22 22 22 22 22 22 22 22 22 22 23 23 23 23 23 23 23 23 24 24 24 24 24 24 24 24 24 25 25 25 25 26 26 26 27 27 27 28 28 28 27 27 27 27 27 27 27 26 26 26 27 26 26 26 26 26 26 26 26 26 26 26 26 26 26
24 24 24 23 23 23 23 23 22 22 22 22 22 22 22 22 22 22 22 22 22 23 22 22 22 23 23 23 23 23 23 23 23 23 23 23 24 24 24 24 24 24 24 24 24 25 25 25 25 25 25 25 26 26 27 27 28 28 28 28 28 28 28 28 28 27 27 27 26 27 27 27 26 26 26 26 26 26 26 26 26 26 26 26 26
23 24 24 24 23 23 23 23 23 23 23 22 22 23 22 22 22 22 22 22 23 23 23 23 23 23 23 23 23 23 23 23 23 23 24 24 24 24 24 24 24 24 24 24 25 25 25 25 25 25 25 26 26 26 27 28 28 28 28 28 28 28 28 28 28 28 27 27 27 27 27 27 27 27 26 26 27 27 27 27 27 27 26 26 26
23 24 24 24 24 23 23 23 23 23 23 23 23 23 23 23 23 22 22 22 23 23 23 23 23 23 23 23 23 23 23 23 23 24 24 24 24 24 24 24 24 24 24 24 25 25 25 25 25 25 26 26 26 27 27 28 28 28 28 28 28 28 28 28 28 28 28 28 28 28 27 27 27 27 27 26 27 27 27 27 27 27 27 27 26
23 23 24 24 24 24 23 23 23 23 23 23 22 22 22 23 23 22 22 22 22 23 23 23 23 23 23 23 23 23 23 23 24 24 24 24 24 24 24 24 24 24 24 24 25 25 25 25 25 26 26 27 27 27 28 28 28 28 28 28 28 28 28 28 28 28 28 28 28 28 28 28 28 28 27 27 27 27 27 27 28 27 27 27 27
23 23 24 24 24 24 24 24 23 23 23 23 22 22 22 22 22 22 22 22 22 23 23 23 23 23 23 24 23 23 23 23 24 24 24 25 24 24 24 24 24 24 24 24 24 24 24 25 25 26 26 26 27 27 27 28 28 28 28 28 28 28 28 28 28 28 28 28 28 28 28 28 28 28 28 28 27 27 27 27 28 28 28 27 27
23 23 23 24 24 24 24 24 24 23 23 23 23 22 23 23 23 23 23 23 23 23 23 23 23 23 23 24 23 23 23 24 24 24 25 25 24 24 24 24 24 24 24 24 24 24 24 25 25 26 26 26 26 27 27 27 28 28 28 28 28 28 28 28 28 28 28 29 28 28 28 28 28 28 28 28 28 27 27 28 28 28 28 28 28
24 23 23 24 24 24 24 24 24 24 24 23 23 23 23 23 23 23 23 23 23 23 23 24 23 23 23 23 24 24 24 24 24 24 24 24 24 24 24 24 24 24 24 24 24 24 24 25 25 26 26 26 26 26 27 27 27 27 28 27 26 27 28 29 29 29 29 29 29 29 29 29 29 29 29 28 28 28 28 28 28 28 28 28 28
24 24 24 23 23 24 24 24 24 24 24 24 24 24 24 23 24 24 24 24 24 23 23 23 23 23 23 23 24 24 24 24 24 24 24 24 24 24 24 24 24 24 24 24 24 24 25 25 25 26 26 26 26 26 26 27 27 27 27 26 25 25 28 28 28 29 29 29 29 29 29 29 29 29 29 29 29 28 28 28 28 28 28 28 28
25 24 24 24 23 24 24 24 24 24 24 24 24 24 24 24 24 24 24 24 23 23 23 23 23 23 23 24 24 24 24 24 24 24 24 24 24 24 24 24 24 24 24 24 24 24 25 25 25 25 25 26 26 26 26 27 27 27 26 26 26 26 28 27 26 28 29 29 29 29 29 30 29 29 29 29 29 29 29 28 28 28 28 29 28
25 25 25 24 24 24 25 24 24 24 24 24 24 24 24 24 24 24 23 23 23 23 23 23 23 23 24 24 24 24 24 24 24 24 24 24 24 24 24 24 24 24 24 24 24 24 25 25 25 25 25 25 26 26 26 27 27 27 27 27 27 27 27 26 26 27 28 29 29 29 29 29 29 29 29 29 29 29 29 29 29 28 29 29 29
25 25 25 25 25 25 25 25 25 25 24 24 24 24 24 24 24 25 24 24 23 23 24 24 24 24 24 25 24 24 24 24 24 24 24 24 24 24 24 24 24 24 24 24 24 24 25 25 25 25 25 25 25 26 26 26 27 27 27 27 27 27 27 27 26 26 28 29 28 29 29 29 29 29 29 29 29 29 29 29 29 29 29 29 29
26 25 25 25 25 25 25 25 25 25 24 24 24 25 25 24 25 25 25 24 24 24 24 24 24 24 24 24 25 24 24 24 24 24 24 24 24 24 24 24 24 24 24 24 25 25 25 25 25 25 25 25 25 25 25 26 26 27 27 27 27 27 27 27 27 27 27 28 28 28 28 29 29 28 29 29 29 30 29 29 29 29 29 29 29
26 25 25 25 25 25 25 25 25 25 25 24 25 25 25 25 25 25 25 25 25 25 25 25 24 24 24 24 24 24 24 24 24 24 24 24 24 24 24 24 24 24 24 24 24 25 25 25 25 25 25 25 25 25 25 26 26 26 26 27 27 27 27 27 27 27 27 27 27 26 27 28 28 29 29 29 29 29 29 29 29 29 29 29 29
26 26 26 25 25 25 25 25 25 25 25 25 25 25 25 25 25 25 25 25 25 25 25 25 24 24 24 24 24 24 24 24 24 24 24 24 24 24 24 24 24 24 24 24 24 25 25 25 25 25 25 25 25 25 25 26 26 26 26 26 27 27 27 27 27 27 27 27 27 26 26 26 27 28 29 29 29 29 29 29 29 29 29 29 29
26 26 25 25 25 25 25 25 25 25 25 25 25 25 25 25 25 25 25 25 25 25 25 24 24 24 24 24 24 24 24 24 24 24 24 24 24 24 24 24 24 24 24 25 25 25 25 25 25 25 25 25 25 25 25 26 26 26 26 26 27 27 27 27 27 27 27 26 26 26 26 26 26 27 28 29 29 29 29 28 28 28 28 28 28
Height
810 810 812 812 814 815 816 816 817 816 816 816 816 816 816 816 816 817 817 818 819 820 820 821 821 821 822 822 823 823 824 824 825 825 826 826 826 827 827 828 828 829 829 829 829 830 830 830 830 830 830 830 830 830 831 831 831 831 832 832 832 832 832 832 833 833 833 833 833 834 834 835 835 835 836 836 836 836 836 836 837 836 836 836 836
810 811 812 813 814 815 817 816 818 817 817 817 817 817 817 818 818 818 819 820 820 821 822 822 822 822 823 823 824 825 825 825 826 826 827 827 828 828 828 829 829 830 830 831 831 831 831 831 831 831 832 831 831 832 832 832 832 832 833 833 834 834 834 834 834 834 835 835 835 835 836 836 836 837 837 837 838 838 838 838 838 838 838 838 838
810 812 813 814 815 816 817 817 818 818 818 818 818 818 818 819 819 820 820 821 821 821 822 823 823 823 824 824 825 826 826 827 827 828 828 829 829 829 830 831 831 832 832 832 832 832 833 832 833 833 833 833 833 833 833 834 834 834 834 835 835 835 835 835 836 836 836 836 836 836 837 837 838 838 838 839 839 840 840 840 839 839 839 839 839
811 812 814 814 815 816 817 818 819 819 819 819 819 819 820 820 820 821 821 822 822 822 823 823 824 824 825 825 826 827 828 828 828 829 830 830 830 830 831 832 832 833 834 834 833 833 833 834 834 834 834 834 835 835 835 835 835 835 835 836 836 836 837 837 837 837 838 838 838 838 838 839 839 840 840 840 841 841 841 841 841 841 841 840 840
812 813 814 815 816 817 818 819 819 820 820 820 820 820 821 821 822 822 822 823 823 824 824 824 824 825 825 826 827 828 829 829 830 830 831 831 831 832 832 833 834 834 835 835 835 834 834 835 835 836 836 836 837 836 836 837 837 837 837 837 838 838 838 839 839 839 839 839 839 839 840 840 840 841 841 842 842 842 842 842 842 842 842 842 842
812 813 814 815 816 817 818 819 820 820 821 821 821 822 822 822 822 823 823 823 824 825 825 825 826 826 827 827 828 828 829 830 831 832 832 833 833 833 833 834 835 835 836 836 836 835 835 836 836 837 838 838 838 838 838 838 838 838 838 838 839 840 840 840 840 841 841 841 841 841 841 841 842 842 843 843 843 843 843 843 843 843 843 843 843
812 814 815 815 817 818 819 820 821 821 821 822 822 823 823 823 823 823 824 824 825 826 826 827 827 827 828 828 828 829 830 831 832 833 833 834 834 835 835 835 836 837 837 838 837 836 837 837 838 838 839 839 839 839 839 839 839 839 840 840 840 841 841 842 842 842 842 842 842 842 843 842 843 843 844 844 844 844 844 844 844 845 844 845 845
813 814 815 816 817 818 820 820 821 822 822 823 823 823 823 824 824 824 824 825 826 827 827 828 828 828 828 829 829 830 831 831 833 833 834 835 836 836 836 836 837 838 838 838 838 838 838 838 839 840 840 841 841 841 840 840 841 841 841 841 842 842 842 843 843 843 843 844 844 844 844 844 844 844 844 844 845 845 845 845 845 846 846 846 846
813 814 815 817 818 819 820 821 822 822 822 823 823 824 824 824 825 825 825 826 827 827 828 828 828 829 829 830 830 831 832 833 834 834 835 836 837 837 837 838 838 839 839 839 839 839 839 840 840 841 841 842 842 842 842 842 842 842 842 843 843 843 843 844 844 844 845 845 845 845 845 845 845 845 845 845 846 846 846 847 846 847 847 847 847
814 815 816 817 818 820 820 821 822 822 823 823 824 824 825 825 825 825 826 827 828 828 828 829 829 829 831 831 832 832 833 834 836 836 836 837 838 838 839 839 839 839 840 840 840 841 841 841 842 842 843 843 843 844 843 843 843 843 843 844 844 844 844 845 845 845 846 846 846 846 846 846 846 846 846 847 847 847 847 848 848 848 848 848 848
814 816 817 818 819 820 820 821 822 822 823 823 824 824 825 825 825 826 826 827 828 829 829 829 830 831 832 832 833 833 834 835 836 837 838 838 838 839 840 840 840 840 840 841 841 842 843 843 843 844 844 844 845 845 845 844 844 844 845 845 845 845 846 846 846 846 847 847 847 847 848 848 847 848 847 848 848 848 849 849 849 849 849 849 849
815 816 817 818 819 820 821 821 822 823 823 823 824 824 825 825 825 826 827 827 828 830 830 830 830 832 832 833 834 834 834 835 836 838 838 839 839 840 840 841 841 841 842 842 843 843 844 844 845 845 845 845 846 846 846 846 846 846 846 846 846 846 847 847 847 847 848 848 848 848 849 849 849 849 849 849 849 849 849 850 850 850 850 850 850
815 816 817 819 819 820 821 821 822 823 823 824 824 824 825 825 825 826 826 827 828 831 831 831 831 832 833 833 834 834 835 836 837 838 839 839 840 840 841 842 842 843 843 844 844 845 845 845 846 846 846 847 847 847 847 847 847 847 847 847 847 848 848 848 848 848 849 849 849 849 849 850 850 850 850 850 850 850 850 851 851 851 851 851 851
816 817 818 819 820 821 821 822 822 823 824 824 825 825 825 825 825 826 826 827 828 831 831 831 833 833 833 834 835 835 836 837 838 838 840 840 840 841 842 843 843 844 844 845 845 846 847 847 847 847 848 848 848 848 848 848 848 848 848 848 849 849 849 849 849 849 850 850 850 850 850 851 851 851 851 851 851 851 851 851 851 851 852 852 852
816 817 819 820 820 821 821 822 822 823 824 824 825 825 825 825 826 826 826 827 829 831 831 831 834 835 835 835 835 835 837 837 838 839 840 841 841 841 842 843 844 844 845 846 847 847 848 848 848 849 849 849 849 849 849 850 850 850 850 850 850 850 850 849 850 850 850 850 851 851 851 851 851 851 852 852 852 852 852 852 852 852 852 852 852
818 818 819 820 821 821 822 823 823 824 824 825 825 825 825 825 825 826 826 827 830 832 832 832 834 836 836 835 835 836 837 838 839 840 841 841 842 842 843 844 845 845 846 847 848 848 849 849 850 850 850 850 850 850 851 851 851 851 851 851 851 850 850 850 850 850 851 851 851 851 851 852 852 852 852 852 852 852 853 852 853 853 853 853 853
818 819 820 820 821 822 822 823 823 824 824 825 825 825 825 825 826 825 826 827 830 833 833 834 835 836 836 835 836 837 838 839 840 840 841 842 843 844 844 846 846 847 848 848 849 849 850 850 851 851 851 851 851 851 852 852 852 852 852 852 851 851 851 851 851 851 851 852 852 852 852 852 852 853 853 853 853 853 853 853 853 853 853 854 854
819 820 820 821 821 822 823 823 824 824 825 825 825 825 825 826 826 825 827 828 831 833 833 834 836 836 836 836 838 838 839 840 841 841 842 843 844 845 846 847 848 848 849 849 850 850 851 851 851 852 852 852 852 852 853 853 853 853 853 852 852 852 852 852 852 852 852 852 852 852 852 853 853 853 853 853 853 853 853 853 853 854 854 854 854
820 821 821 822 822 823 823 823 824 824 825 825 826 825 826 826 826 826 827 830 833 834 833 834 836 836 836 838 839 839 840 841 842 842 843 844 845 846 847 848 849 849 850 850 851 851 852 852 852 852 853 853 853 854 854 854 854 854 854 853 853 853 853 853 853 852 853 853 853 853 853 853 853 853 853 853 853 853 853 854 854 854 855 855 855
821 821 822 823 822 823 823 824 825 825 826 826 826 826 826 827 827 827 828 831 834 835 834 835 837 837 838 840 839 840 840 841 842 843 844 845 846 848 849 850 850 851 851 851 852 852 852 853 853 853 853 854 854 854 855 855 855 855 855 854 854 854 853 853 853 853 853 853 853 853 853 853 853 853 853 853 853 853 853 854 854 855 855 855 855
822 822 822 823 823 824 824 825 825 826 826 826 827 826 827 827 828 828 829 832 835 836 836 836 836 837 840 840 840 840 841 842 843 844 845 847 848 849 850 851 851 852 852 852 852 853 853 854 854 854 854 855 855 855 855 856 856 855 855 855 855 855 854 854 854 854 854 854 854 853 853 853 853 853 853 853 853 854 854 854 854 855 855 855 855
821 822 823 823 823 824 825 825 826 826 827 827 827 827 828 828 828 829 830 832 834 836 837 837 836 836 839 839 840 841 842 843 844 845 847 848 849 850 851 852 852 853 853 853 853 854 854 854 854 854 855 855 856 856 856 856 857 856 856 855 855 855 855 855 855 855 854 854 854 854 854 853 853 853 853 853 854 854 854 854 855 855 855 855 856
821 822 823 824 824 825 825 826 826 827 827 828 828 828 829 829 829 829 830 832 834 836 838 838 838 838 838 839 840 842 843 845 846 847 848 850 851 851 852 853 853 853 853 853 854 854 855 855 855 855 855 856 856 856 857 857 857 857 856 856 855 856 855 855 855 855 854 854 854 854 854 854 853 853 853 853 854 854 854 855 855 855 855 855 856
821 822 823 824 825 825 826 827 827 828 828 828 829 829 829 829 830 830 831 832 834 836 838 839 840 840 841 841 842 843 844 846 847 849 850 851 852 852 853 853 854 854 854 854 855 855 855 855 855 856 856 856 857 857 857 857 857 857 857 857 856 856 856 855 855 855 855 854 854 854 854 854 853 853 853 854 854 854 854 854 854 855 855 856 856
821 822 823 824 825 826 827 828 829 829 829 830 830 830 830 830 831 831 832 833 835 836 838 840 841 842 843 844 844 845 846 847 849 850 851 852 852 853 854 854 854 854 855 855 855 856 856 856 856 857 857 857 857 857 857 857 858 857 857 857 857 856 855 855 855 855 855 854 854 854 854 854 854 853 853 854 854 854 854 854 854 855 855 855 856
822 823 823 824 825 827 828 828 829 830 830 830 830 831 831 831 832 832 833 834 836 837 838 840 841 843 844 845 846 847 848 849 850 851 852 853 853 854 854 854 855 855 855 856 856 857 857 857 857 857 858 858 858 858 858 858 858 858 857 857 857 856 856 855 855 855 855 855 854 854 854 854 854 853 854 854 854 854 855 855 855 855 855 855 855
822 823 823 825 826 827 828 829 830 830 831 831 831 832 832 832 833 834 835 836 837 838 839 841 842 844 845 846 847 848 849 850 851 852 853 854 854 854 854 855 855 856 856 857 857 857 858 858 858 858 858 859 859 859 858 858 858 858 857 857 857 856 856 856 855 856 855 855 854 854 854 854 853 853 854 854 854 855 855 855 855 855 855 855 855
822 823 824 825 826 827 828 829 830 831 832 832 833 833 833 834 834 835 836 837 838 839 841 842 843 845 846 847 848 849 850 851 852 853 853 854 854 855 855 855 856 857 857 858 858 858 858 858 859 859 859 859 859 859 858 858 858 857 857 857 856 856 856 856 855 855 855 854 854 854 854 854 853 853 854 854 854 855 855 855 855 855 854 854 854
822 823 824 825 826 827 828 830 830 831 832 833 834 834 834 835 835 836 837 838 839 840 842 843 844 845 847 848 849 850 850 851 852 853 853 854 855 855 855 856 857 857 858 858 859 859 859 859 859 859 859 859 859 858 858 857 857 856 856 856 856 856 855 855 855 855 855 854 854 854 854 853 853 853 853 854 854 855 855 855 854 854 854 854 854
822 823 824 825 826 828 829 830 831 832 833 834 834 835 836 836 837 837 838 839 840 842 843 844 845 846 847 848 849 850 851 852 852 853 854 854 855 855 856 857 857 858 859 859 859 859 859 859 859 859 859 859 859 858 857 857 856 856 856 856 855 855 855 855 855 855 855 855 854 854 854 853 853 853 854 854 854 854 854 854 854 854 854 854 854
822 823 824 825 826 828 829 830 831 832 833 834 835 836 836 837 838 838 839 840 841 843 844 845 846 847 848 849 850 851 852 852 853 854 854 855 855 856 857 857 858 858 859 859 860 860 860 860 859 859 859 859 858 858 857 856 856 856 856 856 855 855 855 855 855 855 855 855 854 854 854 854 854 854 854 854 854 854 854 854 854 854 854 854 854
821 822 823 825 826 827 829 830 832 833 834 835 835 836 837 838 839 839 840 841 843 844 845 846 847 848 849 850 851 852 852 853 854 854 855 856 856 857 858 858 859 859 859 860 860 860 860 860 860 860 859 859 858 857 857 856 856 856 855 855 855 855 854 854 855 855 855 855 855 854 854 854 854 854 854 854 854 854 854 854 854 854 854 854 854
821 822 823 825 826 827 829 830 832 833 834 835 836 837 838 839 839 840 841 842 844 845 846 847 848 849 850 851 852 852 853 854 855 856 856 857 857 858 859 859 859 859 860 860 860 860 860 860 860 860 859 859 858 857 856 855 855 855 855 855 855 854 854 854 855 855 855 855 855 855 855 855 855 855 855 854 854 854 854 854 854 854 854 854 853
821 822 823 824 826 827 829 830 832 833 834 835 836 837 838 839 840 841 842 843 844 846 846 848 849 850 850 851 852 853 854 855 856 856 857 858 858 859 859 859 860 860 860 860 860 860 860 860 860 859 859 859 858 857 856 855 855 854 854 854 854 854 854 854 855 855 856 856 856 856 855 855 855 855 855 855 855 854 854 854 854 854 854 854 853
820 821 823 824 826 827 828 830 832 833 834 835 836 837 839 840 841 842 843 844 845 846 847 848 849 850 851 852 853 854 854 855 856 857 858 858 859 859 859 859 860 860 860 860 861 861 860 860 860 860 859 859 858 857 856 855 854 854 854 854 854 854 854 854 855 855 856 856 856 856 856 856 856 856 855 855 855 854 854 854 854 854 854 854 854
819 820 822 824 826 827 828 830 832 833 835 836 837 838 839 840 841 842 843 844 846 847 848 849 850 851 852 852 853 854 855 856 856 857 858 858 859 859 859 860 860 860 860 861 861 861 861 860 860 860 859 859 858 857 856 855 854 854 854 854 854 854 854 854 855 855 856 856 856 856 856 856 856 856 855 855 855 855 855 855 855 854 854 854 854
818 820 822 823 825 826 828 830 831 833 835 836 837 838 839 840 841 843 844 845 846 848 849 850 850 851 852 853 853 854 855 856 857 857 858 858 859 859 860 860 860 860 861 861 861 861 861 861 860 860 859 858 858 857 856 855 855 854 854 854 854 854 854 854 855 855 856 856 856 856 856 856 856 856 856 855 855 855 855 855 855 855 855 855 854
818 820 821 823 824 826 828 830 831 833 835 836 837 839 840 841 842 843 844 845 847 848 849 850 851 851 852 853 854 855 855 856 857 857 857 858 859 859 860 860 861 861 861 861 861 861 861 861 861 860 859 859 858 857 856 855 855 854 854 854 854 854 854 854 855 855 855 855 855 856 856 856 856 856 856 856 855 855 855 855 855 855 855 855 854
818 820 821 823 824 826 828 829 831 833 835 837 838 839 840 841 843 844 845 846 847 848 849 850 851 852 852 853 854 855 856 856 857 857 857 858 859 860 860 860 861 861 861 861 861 861 861 861 861 860 859 859 858 856 856 855 855 855 855 855 855 855 855 855 855 855 855 855 855 855 856 856 856 856 856 856 856 855 855 855 855 855 855 855 854
818 819 821 822 824 826 827 829 831 833 835 837 838 839 840 842 843 844 845 845 847 848 849 850 851 852 853 853 854 855 856 857 857 857 858 858 859 860 860 861 861 861 861 861 861 861 861 861 861 860 859 859 858 856 856 855 855 855 855 856 856 856 855 855 855 855 855 854 854 855 855 856 856 856 856 856 856 855 855 855 855 855 855 855 855
818 819 820 822 823 825 826 828 830 833 834 835 837 838 839 840 842 843 844 845 847 848 849 850 851 852 853 854 855 856 857 857 857 857 858 858 859 860 860 861 861 861 861 861 862 862 861 861 861 860 859 858 858 857 856 855 855 855 856 856 856 856 856 856 855 855 854 854 854 854 855 855 855 855 856 856 856 855 855 855 855 855 855 855 854
817 819 819 820 823 824 826 827 830 832 833 835 836 837 839 840 841 842 843 845 846 847 848 849 851 852 853 854 855 856 856 857 857 857 858 858 859 859 860 860 860 861 861 861 862 862 861 861 861 860 860 859 858 857 857 856 855 856 856 856 857 856 856 855 855 855 854 854 854 853 854 854 854 854 855 855 855 855 855 855 855 855 855 855 854
815 817 818 820 822 823 825 827 829 831 832 834 835 837 838 839 841 842 843 844 846 847 848 849 850 851 852 853 854 855 856 857 857 857 858 858 859 859 859 860 860 860 861 861 861 861 861 861 861 861 860 860 859 858 858 857 856 857 857 858 859 858 858 855 854 855 854 853 853 853 853 853 853 853 854 854 854 854 855 855 855 854 854 854 854
814 816 818 819 821 822 824 826 828 830 831 833 835 837 838 840 841 842 843 844 845 847 848 849 850 850 851 852 853 855 856 857 857 858 858 859 859 859 859 859 860 860 861 861 861 861 861 861 861 861 860 860 860 859 858 858 857 857 858 860 860 861 862 858 854 854 853 853 853 852 852 852 852 853 853 853 853 854 854 855 854 854 854 853 853
813 814 816 818 819 821 823 825 827 829 830 832 834 836 838 840 841 842 843 844 845 846 847 848 849 850 850 851 852 854 855 856 857 857 858 858 859 859 859 859 860 860 860 861 861 861 861 861 861 861 861 861 860 860 859 858 858 858 858 859 861 863 863 858 855 855 853 852 852 851 851 851 852 852 852 852 853 853 854 854 854 854 853 853 853
811 812 814 816 818 820 822 824 826 827 830 831 833 835 837 838 839 840 841 842 844 844 845 846 847 849 849 850 852 853 854 855 856 857 857 858 858 859 859 859 860 860 860 860 861 861 861 861 861 861 861 861 861 860 859 859 858 858 858 858 859 861 859 857 858 858 854 852 851 850 850 850 851 852 852 852 852 853 853 853 853 853 853 852 852
809 811 813 815 817 819 821 823 824 826 828 830 832 834 835 837 838 839 840 841 842 843 844 846 847 848 849 850 851 852 853 855 855 856 857 857 858 858 859 859 859 860 860 860 861 861 861 861 861 861 861 861 861 860 860 859 859 859 859 858 857 857 857 857 858 859 858 855 851 850 850 850 850 851 851 852 852 852 853 853 853 852 852 851 851
807 810 812 814 816 817 819 821 823 825 827 829 831 832 834 836 837 838 838 839 841 842 843 845 846 847 848 849 850 852 853 854 855 856 856 857 858 858 859 859 859 860 860 860 860 861 861 861 861 861 861 861 861 861 860 860 859 859 859 858 858 858 857 857 856 856 858 858 855 851 851 850 851 851 851 851 852 852 852 852 852 852 851 851 850
805 808 810 812 814 816 818 820 822 824 826 828 830 831 833 834 836 837 838 839 840 842 843 844 846 847 848 849 850 851 852 853 854 855 856 857 857 858 858 858 859 859 860 860 860 860 861 861 861 861 861 861 861 861 861 860 860 860 859 858 858 858 857 857 856 855 855 858 858 854 852 852 852 852 852 851 852 852 852 852 852 851 851 850 849
804 806 808 810 813 815 817 819 821 823 825 827 828 830 832 833 834 836 837 838 840 841 842 844 845 846 847 848 849 850 851 852 853 854 855 856 856 857 857 858 858 859 859 859 860 860 860 860 861 861 861 861 861 861 861 861 860 860 859 858 858 857 857 857 856 856 855 856 857 856 854 854 853 853 852 852 852 852 852 852 851 851 851 850 849
803 805 807 809 811 813 815 817 820 822 824 826 827 829 830 832 833 834 836 837 838 840 841 842 844 845 846 847 848 849 850 851 852 853 854 855 856 856 857 858 858 858 859 859 859 860 860 860 860 860 861 861 861 861 860 860 860 860 859 858 858 857 858 857 857 856 856 856 856 856 855 855 854 854 853 852 852 852 852 852 851 851 850 849 849
Wind_Speed
12 11 11 11 12 10 9 10 10 12 12 11 11 11 12 13 14 13 14 14 15 16 16 16 16 16 16 16 15 14 15 15 15 15 15 15 16 16 16 16 15 14 14 15 16 16 17 17 16 17 18 18 18 17 18 18 18 18 17 18 17 17 17 18 18 18 17 17 17 17 17 17 17 17 17 18 18 18 17 16 16 16 16 15 15
16 13 12 11 12 11 10 9 10 12 12 12 12 12 13 13 13 13 13 13 14 15 15 16 16 16 16 16 15 14 15 16 16 17 17 17 17 16 15 15 15 14 14 15 16 16 16 17 16 16 18 18 18 17 17 17 18 18 17 17 17 16 17 17 17 17 17 17 17 16 16 17 17 18 18 17 18 17 17 16 16 17 16 15 14
18 15 13 13 12 11 11 9 11 12 12 12 12 12 12 13 13 12 12 12 13 13 14 14 14 15 15 15 15 15 15 16 16 17 17 17 16 15 15 14 14 14 14 15 16 16 16 17 17 16 17 17 17 18 18 17 18 18 17 17 16 16 16 17 17 17 17 17 17 17 17 17 17 17 17 17 17 16 16 16 16 16 15 15 14
18 17 14 14 13 12 12 11 11 12 12 12 12 12 12 12 12 12 12 12 12 13 13 13 13 13 14 15 15 15 15 16 16 16 16 16 16 15 14 13 13 14 14 15 15 16 16 17 17 17 17 17 17 18 18 18 18 17 17 17 16 16 16 16 16 16 16 17 18 18 18 18 17 16 16 16 16 16 15 15 14 14 14 14 14
19 17 15 14 13 13 12 11 11 12 12 12 12 11 12 11 12 12 12 12 12 12 13 13 12 12 13 14 15 15 15 15 16 16 15 15 15 14 14 13 12 13 14 14 15 16 16 16 16 17 16 16 16 17 17 17 17 17 17 17 16 16 16 16 15 16 17 18 19 19 18 17 16 15 15 15 15 15 15 14 14 13 13 13 13
18 16 14 14 13 12 12 12 11 12 13 13 12 12 12 11 11 12 12 12 12 12 12 12 12 12 12 13 14 14 15 15 15 15 15 14 14 14 13 13 12 13 13 13 14 16 15 15 15 15 15 15 15 16 16 16 16 16 17 16 16 15 15 15 15 16 16 17 18 18 17 16 15 14 14 14 14 14 14 13 13 12 12 12 12
17 16 14 14 13 12 12 12 11 11 12 12 12 12 12 12 12 12 12 12 12 12 12 12 12 12 12 13 14 14 14 14 14 14 14 13 14 14 13 13 12 12 12 12 14 15 14 14 15 14 13 13 13 14 15 15 15 15 16 15 15 14 14 14 14 15 15 16 16 16 16 15 14 13 13 13 13 13 13 12 12 11 11 11 11
17 16 15 14 13 12 12 12 11 10 10 11 11 12 12 12 12 12 12 12 12 11 11 11 11 12 12 13 14 15 14 14 14 14 13 13 14 14 13 12 12 12 12 11 12 13 13 14 14 13 12 12 12 13 14 14 14 14 14 14 14 13 13 13 13 13 14 14 15 15 14 14 13 12 12 12 12 12 12 11 11 10 10 10 10
17 16 15 14 13 13 12 12 11 10 10 10 11 11 11 11 12 12 12 12 12 12 11 11 11 12 12 13 14 15 14 13 13 13 13 13 13 13 12 12 11 12 12 11 12 12 13 13 13 13 12 11 11 11 12 13 13 13 13 13 13 12 11 11 12 12 13 13 13 13 13 13 13 12 12 11 12 11 11 11 10 10 10 9 9
17 16 15 14 14 13 12 12 12 11 10 10 11 11 11 11 11 11 11 12 13 13 12 11 11 11 12 13 13 14 14 12 12 11 12 12 12 12 11 11 11 11 11 11 12 12 12 11 12 12 11 11 11 11 11 12 12 13 12 12 12 11 11 11 11 12 13 13 13 13 12 12 12 12 12 11 11 10 10 10 10 10 9 9 9
16 16 15 14 14 12 12 12 11 10 10 10 10 10 10 10 11 11 12 12 13 14 13 12 12 11 12 13 13 14 14 13 12 11 11 12 12 11 11 10 10 11 11 11 12 12 11 11 11 11 10 10 10 10 10 11 12 12 12 11 10 10 10 10 11 11 12 13 13 13 12 12 12 11 11 10 10 10 9 9 9 9 9 8 8
16 16 14 13 13 12 11 10 10 10 9 9 9 9 9 10 10 11 11 12 13 14 13 12 12 12 12 13 12 13 14 14 13 12 12 12 12 11 11 10 9 10 11 11 11 11 11 11 11 10 10 10 10 10 10 10 11 12 11 10 9 9 8 8 9 10 11 12 12 12 12 12 11 10 9 9 9 9 8 8 8 8 8 7 7
16 16 14 13 12 11 10 9 10 10 9 9 8 9 9 10 10 10 11 12 13 14 13 12 12 12 13 13 12 13 13 13 13 14 13 13 12 11 10 10 9 10 10 10 10 11 11 11 10 9 9 10 11 10 9 9 10 11 11 9 8 7 7 7 7 8 9 10 11 11 11 11 10 9 8 8 8 8 8 8 8 7 7 7 6
17 16 15 13 11 10 9 10 10 9 9 8 8 8 8 9 10 10 11 12 13 14 14 13 12 12 12 13 12 12 12 13 13 14 13 13 13 12 10 9 10 10 10 10 10 10 10 10 9 8 8 9 10 9 9 9 10 11 11 9 7 6 6 6 6 6 8 9 10 10 10 10 9 8 8 8 8 7 8 8 8 7 7 7 7
17 16 14 13 11 10 9 9 9 9 9 8 8 8 8 9 9 10 10 12 13 14 14 14 13 12 12 12 12 13 13 13 14 13 13 13 13 12 10 10 10 10 10 10 9 9 9 9 9 8 8 8 8 8 9 9 10 10 10 8 6 5 5 5 5 5 7 8 9 9 9 9 8 7 7 7 6 6 7 7 7 7 7 6 6
16 15 14 12 11 10 9 9 9 9 8 8 8 8 9 9 10 10 10 11 12 13 13 13 13 12 12 13 13 13 14 14 14 14 13 13 12 12 11 10 10 10 10 10 9 9 9 8 8 8 8 8 8 8 9 9 9 9 9 7 5 4 3 3 3 4 5 7 8 9 9 8 8 7 6 5 5 6 6 6 6 6 6 5 5
15 14 13 12 11 11 10 10 9 8 8 8 8 8 8 8 9 10 10 11 11 12 13 13 13 12 12 12 12 13 14 14 14 14 13 12 12 11 11 10 10 10 10 9 8 8 8 8 8 9 9 9 9 9 10 9 8 9 8 7 4 3 3 3 2 3 4 5 7 8 8 7 7 6 5 5 5 6 6 5 5 5 4 4 4
15 14 13 12 12 12 11 11 10 9 8 7 7 7 7 7 8 9 9 10 11 11 12 13 13 12 12 12 13 13 14 15 15 14 13 12 12 11 10 10 9 10 9 8 7 7 7 8 8 9 10 10 10 10 9 8 8 8 8 6 4 3 2 2 1 2 3 4 5 6 6 6 6 5 4 5 5 5 6 5 4 4 4 4 3
15 14 14 13 12 12 12 11 10 10 9 8 7 7 6 7 7 8 8 9 11 11 11 13 13 13 12 12 13 13 14 15 15 14 13 11 11 10 10 9 9 9 9 8 7 7 8 8 8 9 10 11 11 9 7 6 6 6 7 5 4 2 1 1 0 1 3 4 4 5 5 5 5 5 4 4 4 4 5 5 4 3 3 3 2
14 14 14 13 12 12 11 11 10 9 9 8 7 6 6 6 7 7 7 9 12 12 10 12 13 13 13 13 14 15 15 16 15 14 12 11 11 10 9 9 8 8 8 8 7 8 8 7 8 9 11 12 12 9 7 6 4 5 6 5 4 3 2 2 2 1 2 4 4 4 4 4 4 4 4 3 2 2 3 3 3 2 2 3 2
13 14 14 13 12 11 11 10 9 8 8 8 7 6 6 7 7 7 7 9 12 13 12 13 14 13 14 15 16 17 17 16 15 13 11 10 10 10 9 9 9 8 7 7 8 9 9 8 8 9 12 13 11 10 8 7 4 3 5 5 6 6 5 4 4 3 2 4 4 4 4 4 4 3 3 2 1 1 2 2 3 3 3 3 2
13 13 13 13 12 11 9 8 8 8 8 8 8 7 7 8 7 7 8 9 12 15 15 14 14 14 15 15 16 17 17 17 15 14 11 10 10 9 9 8 8 7 6 7 9 10 9 9 9 10 13 12 11 10 8 7 5 3 3 5 7 7 7 6 5 5 4 4 4 4 4 4 3 3 3 2 1 1 1 2 3 3 3 4 3
15 14 13 13 12 11 9 9 9 9 9 9 8 8 8 8 8 8 9 10 12 15 16 16 15 15 15 14 15 16 17 17 15 14 12 10 10 9 8 7 7 6 6 7 9 9 9 9 10 11 12 12 11 10 8 7 6 4 3 4 5 6 7 7 6 6 4 4 4 4 4 4 3 3 3 2 2 1 1 1 2 2 1 2 3
16 15 13 13 12 12 10 9 10 10 10 9 9 9 9 9 9 9 10 11 12 14 17 18 17 16 16 15 15 15 16 16 15 13 12 11 9 9 8 7 6 6 7 8 9 9 9 9 10 11 12 11 10 9 8 7 6 5 4 2 4 6 8 8 7 6 5 4 4 4 5 4 3 3 3 2 2 2 2 2 1 1 1 0 2
17 16 15 14 13 12 11 10 11 11 11 10 9 9 9 9 9 10 10 11 12 14 15 17 17 18 19 19 18 17 17 16 14 13 12 11 10 9 8 8 7 8 8 8 9 8 9 9 9 9 9 8 8 7 7 6 6 6 5 4 5 7 9 9 8 7 5 5 5 5 5 4 4 3 3 3 2 2 2 2 2 2 1 1 2
17 17 16 15 14 13 12 12 12 11 10 10 10 10 9 9 10 10 10 11 12 14 14 15 17 18 20 20 20 19 18 17 14 13 12 11 11 9 8 8 8 9 8 8 8 8 8 7 7 6 5 5 5 5 6 6 6 7 7 6 6 7 8 8 8 7 6 5 5 5 5 5 4 4 3 4 3 3 3 2 1 1 1 2 2
17 17 17 16 15 13 13 13 13 12 11 10 9 10 9 9 10 10 11 12 13 14 14 15 17 18 18 19 19 19 18 17 15 13 12 11 10 9 9 9 9 9 9 8 8 7 7 6 5 4 3 3 4 5 6 7 8 9 9 8 8 9 8 8 8 7 6 5 5 6 5 5 4 3 3 3 4 3 2 2 1 1 1 2 2
18 18 18 17 16 15 14 14 14 13 12 10 9 10 9 10 11 11 11 12 13 13 15 16 17 17 17 17 17 18 17 16 15 13 12 11 10 10 10 10 10 9 9 8 8 6 5 3 2 2 2 3 5 6 7 9 9 10 11 10 10 11 11 10 9 8 7 6 6 6 5 4 3 3 3 3 4 3 2 2 1 1 1 1 2
19 19 19 18 17 16 15 14 15 14 13 11 10 11 11 11 11 11 12 12 13 14 15 16 16 17 16 16 16 16 16 15 14 12 11 11 10 10 11 11 10 9 9 8 6 4 3 2 3 4 5 6 8 8 10 10 10 10 11 11 11 12 12 11 9 8 7 6 6 5 4 3 3 2 2 2 3 3 2 2 1 1 1 2 2
21 20 20 19 18 18 16 14 15 15 13 13 13 12 11 12 12 11 11 12 13 14 15 15 16 15 14 14 14 14 15 14 13 12 12 12 11 11 11 11 10 9 8 6 4 3 2 4 5 6 7 9 9 10 11 10 9 9 10 9 10 10 10 9 8 7 7 6 5 4 3 2 1 1 1 1 1 1 2 1 1 1 2 2 2
21 21 20 20 19 18 17 16 16 16 15 14 14 13 12 12 12 12 12 12 14 14 15 15 15 14 13 13 12 13 14 13 13 12 12 11 11 11 10 9 9 7 5 3 2 3 5 6 7 7 8 9 9 10 11 9 8 8 9 8 7 8 7 6 7 7 7 6 4 3 2 1 1 0 0 0 0 0 1 1 2 2 3 2 2
22 22 21 20 20 19 18 18 17 16 16 15 14 13 13 13 12 12 12 13 14 15 15 14 14 13 12 12 12 12 12 12 12 11 11 11 10 9 9 8 7 5 3 1 3 5 6 6 6 7 7 8 10 11 10 8 8 7 8 9 7 6 5 5 6 7 6 6 5 2 1 1 1 1 1 1 1 1 2 2 2 3 3 3 2
23 23 22 21 21 20 20 19 18 17 17 16 14 13 14 14 13 13 13 13 14 14 14 14 13 12 12 11 11 11 10 10 10 10 10 10 9 8 8 7 5 3 1 2 3 4 5 5 5 6 7 9 11 11 8 7 6 6 6 9 9 7 6 5 5 6 6 5 4 2 3 3 2 2 2 2 2 2 3 3 3 3 3 3 2
24 23 23 22 21 21 20 19 18 18 17 16 15 14 14 15 14 13 14 13 13 14 14 14 13 12 12 11 11 10 10 9 9 10 10 9 8 7 6 5 3 2 1 2 3 4 4 4 5 5 7 9 10 9 8 6 5 6 6 9 9 8 8 7 6 6 5 5 3 2 3 3 3 3 3 2 2 3 3 3 3 3 2 2 2
25 25 24 22 21 22 21 20 19 19 19 17 15 15 15 15 14 14 14 13 13 13 14 13 13 12 12 11 10 10 10 9 9 10 9 8 6 5 4 3 2 2 2 2 3 4 4 4 5 7 8 8 8 7 6 5 4 7 6 7 10 10 10 9 8 8 6 5 4 2 1 1 2 4 4 3 3 3 3 3 3 2 2 1 1
27 26 25 22 22 22 22 21 20 21 20 17 16 16 16 16 15 15 14 14 13 13 13 13 12 12 11 11 10 10 10 9 9 9 8 7 6 5 4 3 3 3 3 3 4 5 4 4 6 8 8 8 7 7 5 4 3 5 6 6 8 10 10 11 11 10 8 7 6 3 2 1 1 2 4 4 4 4 4 3 3 3 2 2 2
28 27 26 24 23 22 22 21 21 21 20 19 18 17 16 16 14 14 14 14 14 14 13 12 11 11 10 10 10 10 10 9 9 8 8 7 6 5 4 4 5 4 3 4 5 5 5 5 6 6 8 8 8 8 5 3 3 4 6 6 7 9 10 10 10 10 10 9 8 6 4 3 3 3 2 4 5 4 4 3 2 2 2 1 2
27 27 26 24 24 23 22 22 21 21 20 20 20 18 16 16 15 15 15 15 14 14 13 12 11 10 10 10 11 10 9 8 8 7 7 8 8 7 6 5 5 4 4 5 5 5 5 6 6 5 7 8 8 9 6 2 2 3 6 7 7 8 8 8 9 10 11 10 9 7 5 5 4 4 4 4 4 3 3 2 1 1 0 1 3
27 27 26 25 24 24 22 22 22 22 21 21 21 19 17 16 16 16 16 15 14 14 13 12 11 10 11 12 11 10 8 7 6 6 7 8 8 8 7 6 5 5 5 5 4 5 5 5 5 5 6 6 7 9 6 2 4 4 6 7 6 6 7 7 8 9 11 11 11 9 7 7 6 6 6 6 5 4 3 3 3 3 3 3 4
27 28 27 26 25 25 24 24 24 23 22 22 21 20 18 18 18 18 18 17 16 15 14 14 13 11 12 12 11 10 9 7 7 8 8 8 9 10 9 7 6 5 5 4 4 4 4 3 4 5 5 5 6 7 5 3 5 7 6 7 5 5 7 8 9 10 10 11 12 12 11 9 8 7 7 8 8 7 5 5 5 5 6 5 6
26 27 28 28 27 26 26 26 26 25 24 24 23 22 21 21 20 20 21 20 19 17 16 16 15 13 13 13 12 12 11 9 8 9 9 9 10 12 10 8 7 6 5 4 4 3 2 2 2 4 5 7 8 7 5 2 4 6 4 5 6 6 6 7 9 10 9 10 11 13 13 13 12 11 9 9 10 9 8 6 6 7 7 8 8
26 27 28 29 28 27 27 28 28 27 25 25 24 23 22 23 22 22 22 21 20 19 19 19 17 16 15 15 14 14 13 9 8 9 10 11 12 12 10 8 7 6 5 4 4 3 1 1 2 2 5 8 8 7 7 4 1 2 2 2 5 6 7 7 9 10 10 11 12 13 14 15 16 15 13 12 12 11 10 8 7 7 7 7 8
28 29 28 29 30 29 28 28 29 28 27 25 24 23 22 23 22 21 22 21 20 20 19 19 18 17 18 18 17 17 14 10 9 9 10 12 12 10 9 7 7 7 5 5 5 3 1 2 3 3 4 7 8 7 7 5 2 1 1 1 2 3 5 7 8 11 13 14 15 15 16 16 16 16 16 16 14 13 12 10 9 8 7 8 8
27 28 28 29 30 31 30 29 30 29 27 25 24 23 22 21 20 20 21 21 20 20 19 18 18 17 18 19 19 19 16 12 10 10 10 11 10 9 8 8 8 7 5 5 5 3 1 1 3 4 4 7 7 7 7 7 4 1 1 0 0 2 2 4 6 9 10 13 16 16 16 16 16 15 15 17 16 15 13 12 11 9 9 9 9
27 29 30 30 30 32 32 30 31 29 27 25 23 22 21 20 19 19 21 21 19 20 21 20 19 18 17 19 21 21 18 14 12 11 10 10 9 8 8 8 9 8 6 5 5 3 2 2 3 4 4 6 7 7 7 9 8 4 2 0 1 1 2 3 5 5 4 5 10 14 16 17 16 15 15 16 16 16 15 14 13 12 11 11 11
29 31 32 32 31 32 32 31 31 30 28 25 23 24 23 21 20 22 23 22 20 21 23 22 21 19 17 19 21 21 20 16 14 12 11 10 9 9 9 8 8 8 7 6 5 3 3 2 2 3 3 4 6 7 7 8 10 8 4 2 1 1 3 2 2 3 4 5 7 7 12 16 17 17 17 17 17 17 16 15 14 13 13 13 14
30 31 31 31 31 32 32 31 31 30 29 26 25 26 24 21 20 22 25 24 23 23 24 23 21 19 17 18 20 21 20 18 16 14 13 11 10 10 10 9 7 8 8 7 5 4 3 2 1 2 2 3 4 7 8 7 8 8 7 5 4 3 1 1 1 1 2 4 9 9 3 7 11 15 17 17 18 17 16 17 16 15 15 16 16
30 30 29 30 31 32 32 31 30 30 29 27 27 27 26 23 21 21 23 26 26 25 24 24 21 19 18 18 19 20 20 19 18 16 14 12 11 10 10 10 8 7 8 7 6 5 4 2 1 0 1 2 3 5 7 8 8 8 8 7 7 7 8 6 3 3 2 1 6 8 7 5 3 7 11 14 15 16 16 17 16 14 13 13 12
31 31 31 31 31 32 32 31 30 30 30 29 28 28 27 24 21 21 22 24 25 24 24 24 23 21 20 19 19 19 19 18 18 18 16 14 12 11 11 10 9 8 8 7 6 6 4 4 3 1 1 0 2 3 5 7 8 9 9 9 8 8 9 10 9 6 4 3 2 4 6 7 6 6 5 5 7 8 10 10 9 8 7 8 8
32 33 32 31 31 31 32 32 31 30 30 30 29 29 27 24 22 23 23 22 23 23 24 25 24 23 21 20 20 19 18 17 17 19 18 15 13 12 11 11 10 9 9 9 7 7 6 5 4 3 2 1 1 1 3 4 5 7 8 9 10 9 8 8 9 8 5 4 2 2 5 6 5 7 5 1 1 2 3 3 3 3 5 6 6
31 31 30 30 31 31 32 32 32 31 30 30 30 29 27 24 23 24 24 23 22 23 24 25 25 24 22 21 20 19 18 17 17 19 18 16 14 13 12 12 11 10 10 9 8 7 7 6 5 5 3 2 1 1 1 1 2 4 6 7 9 9 7 5 7 7 5 4 3 2 4 4 3 5 6 3 1 2 2 2 2 3 5 6 5
Wind_Direction
174 156 147 139 134 142 140 138 138 136 133 134 134 130 126 123 120 118 118 117 119 121 124 124 121 119 118 115 112 111 110 110 109 112 116 119 118 114 112 110 107 106 107 108 108 106 106 105 103 102 102 102 101 101 100 100 100 99 98 97 97 97 98 99 99 98 97 97 97 98 98 98 97 96 94 94 96 97 98 98 97 96 95 95 97
162 155 150 142 139 142 142 143 141 134 132 136 135 132 129 127 125 122 121 119 119 120 123 125 124 123 121 118 115 113 112 112 112 112 115 117 117 114 111 109 108 108 111 111 108 106 105 105 103 102 104 105 105 103 101 100 100 99 98 98 97 97 99 99 99 98 99 99 99 99 100 100 99 97 94 93 95 96 97 98 98 96 95 95 95
152 152 150 144 142 143 145 145 141 135 134 137 136 137 133 131 131 128 125 121 121 120 122 124 124 124 123 122 119 116 115 115 115 115 116 118 117 115 111 109 108 108 112 113 110 108 107 106 105 104 106 107 106 106 103 101 100 99 98 97 96 95 97 98 99 100 101 101 101 101 100 99 98 96 95 94 95 96 96 97 96 96 97 97 95
150 149 147 143 141 144 145 145 144 140 139 139 139 139 136 136 134 131 127 125 125 123 123 124 123 124 125 125 123 120 119 119 119 119 119 118 117 115 113 111 110 110 113 114 110 108 108 108 106 106 107 106 106 106 104 102 100 100 98 96 94 93 93 94 97 101 103 104 103 102 99 97 96 95 96 96 97 96 96 96 96 95 96 95 94
149 146 145 142 142 145 142 145 147 146 143 140 139 137 137 138 136 132 130 131 130 127 125 124 125 126 126 127 125 123 123 123 122 122 121 119 117 116 115 114 111 112 114 112 111 108 107 107 106 106 106 106 106 107 105 104 104 101 99 97 95 93 92 93 96 101 105 105 104 102 100 97 96 96 97 97 97 97 97 96 96 96 96 95 94
149 144 144 146 145 144 140 144 147 148 144 140 140 139 140 139 139 136 135 136 134 131 127 125 127 127 127 129 128 126 127 126 124 124 122 121 120 119 119 117 113 111 111 110 112 110 107 107 107 107 107 107 108 109 108 107 107 104 102 101 98 96 96 95 98 103 106 105 104 103 102 101 100 99 98 98 97 96 96 95 96 97 97 97 97
149 144 146 150 145 142 142 145 144 143 140 139 140 140 141 142 143 141 141 140 138 134 130 129 128 127 129 132 134 132 130 128 126 126 125 125 125 124 122 119 114 109 107 109 111 109 110 110 109 109 110 110 110 111 110 110 109 107 106 104 102 100 98 98 101 105 106 106 105 104 103 103 102 101 101 99 98 97 96 96 95 95 96 97 97
149 147 151 150 144 143 145 147 145 142 139 140 141 142 143 144 146 147 147 145 142 138 135 134 131 131 133 136 139 137 133 131 130 130 130 129 127 124 123 121 117 112 109 109 108 108 111 112 112 112 111 111 110 111 112 113 112 110 109 108 107 103 100 101 104 107 107 108 107 106 104 102 101 101 101 100 100 99 98 98 96 95 96 97 97
153 151 152 149 145 145 145 148 149 149 148 147 149 149 150 151 151 151 150 148 144 141 139 136 135 137 137 138 139 138 135 134 134 134 134 131 126 122 121 122 120 116 113 113 109 109 111 113 114 113 113 112 109 110 112 113 114 114 112 112 112 108 105 105 107 110 110 110 108 107 104 103 101 99 98 97 97 96 97 97 97 95 94 97 98
155 153 152 146 143 145 148 152 152 153 155 155 155 156 159 158 156 154 153 151 146 145 144 140 142 143 139 137 137 137 136 135 136 135 134 130 124 121 120 121 122 119 115 114 111 110 113 115 115 115 115 112 109 108 108 112 116 115 115 115 114 111 109 108 110 114 115 114 110 107 106 105 102 99 97 95 94 94 95 94 94 93 93 94 95
156 153 152 146 145 149 151 154 153 155 159 159 159 161 164 163 161 160 159 156 151 148 148 147 147 145 141 138 138 139 138 139 139 136 133 129 124 123 123 120 122 122 117 114 113 113 116 118 117 117 117 113 111 109 107 112 116 117 117 114 111 112 111 110 114 117 118 118 115 112 110 105 101 99 98 97 96 96 95 93 91 91 89 87 88
156 156 154 149 148 152 153 154 156 159 164 164 166 166 167 169 169 170 164 159 154 150 150 150 148 150 147 139 139 141 139 141 141 139 138 135 130 127 128 123 122 123 119 116 115 117 119 120 120 121 120 116 114 112 112 117 119 119 117 114 116 119 116 112 116 121 122 122 119 117 114 107 103 102 102 102 100 97 96 95 94 94 93 91 89
157 159 156 152 152 154 156 156 161 164 167 168 172 171 171 174 175 175 169 164 156 149 151 152 152 154 149 141 142 143 140 142 143 143 143 142 134 130 131 125 122 122 119 118 118 119 121 121 122 124 122 117 117 115 116 124 127 125 123 120 128 131 120 109 111 123 126 126 124 121 118 114 112 111 108 106 103 98 94 94 92 89 89 91 88
160 162 156 154 154 157 160 161 165 166 169 173 177 175 175 175 174 172 169 168 159 151 156 156 153 154 148 141 143 143 143 145 143 143 145 144 137 131 134 130 127 126 121 120 122 122 123 124 126 128 122 117 116 112 114 126 133 134 132 129 137 137 118 104 107 126 132 131 129 126 123 117 113 109 104 101 100 98 96 95 92 90 88 85 76
162 161 157 156 156 161 164 164 167 170 175 176 179 179 177 177 175 173 173 171 159 154 160 156 149 149 146 144 148 149 149 144 140 141 144 144 138 135 138 138 134 130 127 127 127 124 124 128 132 135 131 123 116 110 115 124 131 135 138 138 144 130 106 96 102 130 138 137 134 131 125 116 110 106 105 105 104 103 101 100 97 95 92 85 77
162 160 158 158 158 161 164 168 172 174 178 175 177 178 176 178 178 178 179 173 159 152 156 151 147 149 149 148 151 153 150 142 139 140 136 137 138 139 140 139 136 132 132 131 128 126 128 133 139 145 143 136 124 119 123 128 135 143 149 154 153 124 98 81 92 135 150 146 140 135 129 123 119 117 118 118 115 109 105 105 101 95 89 88 85
164 162 160 160 160 161 164 169 173 173 175 175 175 176 176 177 181 183 179 172 157 147 149 149 146 151 156 152 147 152 151 144 142 136 131 137 140 140 139 138 139 136 135 133 130 133 136 140 144 149 150 148 137 129 130 132 143 154 159 163 156 130 106 68 82 148 164 157 149 144 137 134 132 130 133 127 121 115 110 108 101 96 93 92 87
163 164 163 163 164 164 165 167 169 169 170 172 172 175 176 179 186 186 180 169 154 147 154 150 144 153 161 153 148 152 152 148 147 139 136 143 142 142 142 142 143 138 135 132 135 142 145 149 152 156 155 156 153 142 133 131 141 155 162 164 158 146 123 68 83 162 178 172 165 157 146 145 142 137 139 132 130 129 126 121 110 106 98 89 82
162 166 165 165 167 166 168 169 170 168 167 168 171 177 180 186 189 187 182 165 146 148 164 152 144 158 159 149 151 153 151 151 152 146 141 145 145 145 145 144 144 138 136 137 145 149 149 152 155 160 158 159 161 152 141 134 137 151 166 172 170 168 158 195 234 169 192 192 185 174 159 158 155 151 153 148 143 145 146 143 135 135 132 112 83
161 167 167 167 168 169 171 170 170 168 169 168 170 178 181 184 185 185 181 157 139 147 163 151 149 160 155 151 157 158 154 154 154 148 144 148 149 146 144 144 143 141 146 152 153 147 145 145 144 154 158 158 160 159 157 153 151 162 177 190 196 214 236 245 255 251 216 206 201 196 181 170 168 168 170 166 152 145 146 149 145 137 146 142 114
163 170 170 172 171 172 173 169 169 168 169 167 164 171 177 173 175 182 172 151 140 144 151 153 157 159 155 157 160 159 155 154 154 148 145 151 151 148 147 149 149 150 155 156 149 143 143 141 138 149 159 162 166 170 171 168 176 184 192 210 218 230 249 259 260 266 242 218 214 215 206 188 185 186 183 183 164 138 114 107 104 86 77 93 103
166 173 175 177 176 175 174 171 171 167 167 167 164 166 168 165 170 174 159 147 144 144 148 155 161 158 156 159 159 158 155 155 154 148 150 156 153 152 152 156 158 155 153 150 147 146 145 144 144 153 162 170 175 178 179 178 187 202 224 237 235 237 251 260 261 270 261 234 229 227 225 215 208 204 203 202 179 162 114 77 75 67 54 52 57
170 176 178 181 181 178 177 174 168 165 166 168 167 166 165 165 168 164 153 150 148 145 144 149 156 155 154 157 158 157 155 154 152 150 153 155 153 154 153 157 158 156 156 153 152 151 149 150 152 159 167 175 180 183 189 188 188 200 230 254 255 252 258 263 263 273 273 253 243 240 240 239 234 221 213 210 188 194 217 175 104 66 50 24 16
176 178 178 181 182 179 175 171 166 166 168 170 167 166 167 169 168 162 157 156 152 147 144 146 151 152 152 157 160 157 155 153 151 152 151 151 153 151 153 157 160 165 167 159 157 156 155 156 159 166 174 181 187 192 199 200 192 198 216 255 276 268 266 266 269 277 281 268 256 251 251 253 252 235 224 231 210 205 224 209 196 182 141 23 330
178 178 178 178 178 176 170 166 167 169 169 170 166 164 169 170 170 165 160 158 153 150 148 147 147 149 152 158 159 156 156 155 154 155 152 155 154 151 157 165 168 169 167 161 159 159 159 161 163 169 178 188 197 205 211 214 206 207 229 258 277 277 273 266 267 275 285 280 265 258 257 256 256 245 234 241 238 230 238 245 235 216 186 264 272
177 180 180 177 177 175 169 165 167 167 167 167 161 160 166 169 171 169 164 158 154 152 149 146 145 147 151 154 155 154 157 156 156 157 156 158 157 157 163 167 168 164 162 161 158 157 156 157 161 167 178 193 204 217 226 233 228 225 240 261 272 278 276 264 260 272 287 289 272 259 257 257 254 250 241 238 248 250 251 268 262 241 278 295 285
178 184 182 178 178 180 173 167 167 166 162 163 158 157 162 166 168 169 166 158 155 153 149 147 145 147 149 150 152 154 156 155 155 158 159 160 160 162 162 161 160 159 159 157 154 154 156 158 166 177 196 212 229 247 254 258 255 250 248 252 256 264 271 265 261 270 287 293 276 261 254 255 251 254 251 239 255 265 262 281 290 273 292 314 317
180 186 185 181 182 185 178 170 173 169 163 164 161 157 160 161 161 163 162 158 157 153 149 148 147 149 148 150 152 153 154 154 155 159 159 160 162 159 155 156 157 159 160 156 157 160 166 178 196 239 270 282 289 293 293 286 276 269 262 256 253 256 263 265 265 266 282 293 277 261 252 252 249 255 256 240 254 266 275 296 309 319 336 359 344
182 188 187 185 185 186 182 176 179 175 169 171 165 160 161 161 158 157 158 158 157 154 151 150 150 150 149 151 155 155 155 154 154 156 158 158 159 156 152 156 159 161 162 159 164 171 194 239 277 296 307 313 316 318 317 305 283 272 266 261 258 256 258 261 262 260 274 292 279 258 248 249 244 249 255 250 254 264 278 308 347 18 30 36 33
182 188 189 188 188 188 186 181 180 177 173 173 171 166 165 168 165 160 159 158 157 156 154 153 152 153 153 156 159 157 153 153 154 155 156 155 156 155 154 159 162 164 165 165 176 207 260 287 299 311 319 322 325 328 326 311 278 264 262 260 261 259 255 254 256 257 268 285 275 248 238 236 231 238 253 262 268 277 284 317 25 51 63 64 58
181 187 190 191 190 190 188 183 179 176 175 176 174 171 171 172 170 168 164 159 159 160 157 156 157 158 158 159 159 158 154 155 156 155 155 155 156 157 159 165 168 170 173 179 223 286 301 308 315 322 328 330 332 331 327 309 275 264 261 258 259 255 250 249 251 255 264 278 268 233 213 204 182 175 228 283 321 356 3 40 63 83 91 90 80
182 188 192 191 191 193 190 186 181 177 179 179 177 174 173 172 171 171 167 163 163 162 161 160 160 159 159 157 157 157 156 157 157 158 158 159 159 161 166 172 173 177 193 259 302 311 313 316 324 330 333 334 332 328 321 299 281 280 265 254 256 253 253 256 253 255 260 269 263 221 155 131 108 87 80 59 70 67 60 68 87 105 106 99 81
183 189 191 191 193 193 192 189 184 182 182 181 181 177 173 172 172 171 168 167 167 165 163 161 158 157 154 152 153 154 155 157 161 165 164 161 161 163 170 175 176 184 239 312 317 318 317 323 335 336 334 330 327 327 321 298 286 289 266 247 250 255 256 258 257 259 257 260 258 209 137 102 83 70 71 72 74 75 80 93 108 116 109 96 73
180 186 189 191 193 193 193 192 185 182 182 180 182 179 175 174 173 171 171 171 170 168 165 161 159 157 157 156 157 159 161 163 167 167 163 162 164 169 177 180 185 215 267 305 322 327 323 331 345 336 327 325 325 330 327 307 273 265 259 242 244 252 253 255 259 259 251 248 243 194 144 108 87 71 70 81 90 95 104 117 125 123 110 90 61
178 183 189 191 193 194 193 191 184 181 181 181 182 180 178 177 176 176 176 176 174 173 170 166 164 162 162 164 165 167 168 168 168 168 168 172 178 188 197 204 226 247 251 274 306 317 319 329 335 323 322 325 324 335 341 324 272 248 247 239 241 249 253 255 259 259 253 244 227 191 182 128 104 90 79 84 100 109 118 127 126 118 101 79 46
179 182 187 189 192 195 194 191 187 184 183 183 183 182 180 179 180 180 182 183 180 178 176 173 170 168 168 169 171 173 172 172 173 178 185 192 202 209 217 236 237 229 238 275 289 297 306 310 315 316 322 328 328 349 1 337 301 250 238 238 240 244 251 256 258 258 254 247 235 217 234 251 181 130 98 93 103 110 113 116 114 103 87 66 40
180 180 184 187 190 193 193 192 190 187 185 183 184 184 182 182 184 183 185 186 183 182 182 181 179 175 174 174 175 177 178 181 184 193 203 208 212 213 223 232 223 223 253 277 283 292 297 295 303 311 320 325 333 354 2 323 308 263 234 227 235 242 248 254 258 257 252 249 244 232 228 230 228 219 158 120 118 114 110 109 107 103 77 37 10
179 180 182 184 186 189 191 192 190 186 183 181 182 182 181 183 186 184 186 187 183 181 184 188 187 185 184 180 180 183 186 192 199 210 216 215 213 215 221 215 209 232 268 274 276 286 292 299 305 307 316 324 336 350 352 304 265 261 231 221 236 245 247 254 257 253 249 250 250 245 241 235 238 244 229 187 158 146 136 138 161 202 279 316 319
178 180 182 183 184 187 189 189 187 183 181 180 180 180 182 186 188 187 188 187 183 181 186 190 188 190 190 187 188 189 190 198 213 222 219 216 216 215 207 194 207 241 264 269 272 278 287 306 311 314 318 322 338 347 346 304 244 239 224 217 233 247 239 241 249 254 255 257 258 256 252 245 245 248 244 230 212 205 202 205 225 242 255 275 292
178 180 181 182 184 186 186 186 185 183 181 181 181 183 186 189 192 194 194 192 187 186 189 189 188 189 189 192 194 190 188 197 213 221 221 221 216 207 197 197 222 242 248 256 262 270 285 312 324 332 327 328 353 356 347 300 239 233 229 219 236 260 245 236 245 260 266 265 264 261 260 256 252 252 252 247 240 236 235 238 249 258 262 269 283
176 179 179 181 184 185 185 185 185 184 184 184 185 186 189 191 194 198 197 194 191 191 191 191 191 188 189 198 198 192 193 199 210 216 218 217 206 199 202 216 229 230 234 238 237 244 272 327 354 355 347 354 8 10 5 354 219 224 231 228 244 256 246 245 256 266 270 271 270 267 265 262 260 261 261 257 252 249 248 254 265 273 276 280 286
177 180 180 181 184 186 185 185 185 185 187 186 187 189 192 193 194 197 196 194 194 194 195 196 198 196 196 203 203 202 203 201 205 209 207 202 199 201 211 226 225 219 225 224 221 218 216 7 21 13 3 8 13 17 17 25 136 201 197 243 266 264 256 255 259 261 264 269 271 271 269 269 271 271 268 264 261 257 255 258 267 279 288 292 293
180 181 182 182 183 185 185 185 185 186 187 187 189 191 196 198 199 199 197 196 197 197 198 198 203 205 203 205 208 209 206 200 197 194 195 198 203 212 220 224 216 209 215 216 212 205 151 43 41 32 17 18 22 29 28 30 50 158 155 350 298 294 280 267 258 255 257 262 264 268 271 272 275 275 271 266 262 261 260 260 266 276 289 296 299
180 181 183 183 183 184 185 185 185 186 186 188 191 195 198 201 204 206 202 201 201 200 200 199 201 206 206 207 208 209 206 202 195 189 194 205 213 223 223 216 207 203 214 219 214 203 153 75 59 48 23 17 22 36 46 48 54 128 157 334 35 44 321 288 288 273 265 264 262 263 267 268 269 270 269 266 263 264 265 264 267 274 284 292 301
180 182 184 185 184 184 184 184 185 186 188 190 193 198 199 197 200 203 200 201 202 200 202 202 203 206 206 204 204 206 207 204 202 198 203 212 220 227 222 213 207 208 217 215 210 203 167 125 72 52 27 17 19 37 65 67 63 75 112 143 33 27 247 284 326 312 304 294 276 264 255 255 260 264 268 269 267 266 267 268 269 274 282 289 297
183 184 187 187 187 186 184 184 185 187 190 192 194 197 198 196 196 195 192 193 195 198 204 205 204 206 205 201 201 205 207 207 208 206 208 216 225 230 223 216 212 212 214 206 204 202 175 154 88 57 34 23 23 39 63 72 70 68 74 98 61 293 251 286 355 321 343 8 355 303 254 246 251 258 264 269 270 269 272 275 276 280 287 292 294
185 186 187 187 188 188 186 186 187 188 191 193 195 196 197 197 197 197 196 195 194 200 207 208 206 205 205 203 203 206 208 209 211 211 212 215 223 229 224 221 218 211 208 204 204 198 180 172 129 69 39 24 24 37 44 52 64 62 63 75 72 71 36 348 166 292 331 357 19 24 337 264 257 259 263 267 269 269 274 278 281 288 294 299 299
185 186 187 188 190 190 190 190 189 190 191 193 195 197 198 198 195 195 198 199 201 204 207 209 207 207 208 208 206 207 209 211 213 214 214 213 219 227 226 225 225 216 211 206 202 202 201 198 184 41 7 6 14 31 35 37 44 42 49 64 66 71 67 61 80 87 112 327 1 23 33 12 313 286 280 275 272 270 276 282 286 292 299 308 311
184 186 188 189 191 192 192 192 192 193 193 195 197 198 200 201 198 194 193 197 204 207 207 208 208 208 210 211 208 207 208 211 215 217 217 216 222 229 229 229 227 222 219 215 211 216 225 222 216 244 284 348 14 24 29 33 38 36 38 47 55 66 66 63 68 68 83 91 355 343 12 31 41 27 348 296 282 277 282 287 289 296 307 326 330
185 187 188 189 190 190 190 191 194 195 196 197 199 199 200 204 205 201 195 194 200 205 206 206 207 208 211 211 210 208 207 210 214 216 216 217 224 230 233 232 227 222 221 221 222 226 229 225 226 238 231 182 32 7 15 25 32 34 34 37 44 51 50 49 53 51 54 73 71 343 354 19 32 30 32 16 287 310 302 294 289 305 325 345 348
185 185 186 188 188 189 190 192 195 197 198 199 200 200 202 207 211 207 203 199 197 199 202 204 205 207 210 212 212 211 210 211 211 210 212 217 225 230 233 234 227 223 223 222 224 231 233 229 237 243 235 224 229 274 324 2 19 34 38 37 43 50 51 46 45 46 45 51 58 5 354 11 5 11 25 41 32 9 356 345 336 346 359 9 20